Regional Weather Roundup
Issued by NWS Cleveland, OH

Home | Current Version | Previous Version | Graphics & Text | Print | Product List | Glossary On
Versions: 1 2 3 4 5 6 7 8 9 10 11 12 13 14 15 16 17 18 19 20 21 22 23 24 25 26 27 28 29 30 31 32 33 34 35 36 37 38 39 40 41 42 43 44 45 46 47 48 49 50
000
ASUS41 KCLE 191110
RWRCLE
OHIO REGIONAL WEATHER ROUNDUP
NATIONAL WEATHER SERVICE WILMINGTON, OH
700 AM EDT TUE SEP 19 2017

NOTE: "FAIR" INDICATES FEW OR NO CLOUDS BELOW 12,000 FEET WITH NO
SIGNIFICANT WEATHER AND/OR OBSTRUCTIONS TO VISIBILITY.

OHZ001>008-015>018-024>027-034-035-043-044-191200-
   NORTHWEST OHIO

CITY           SKY/WX    TMP DP  RH WIND       PRES   REMARKS
DEFIANCE       CLOUDY    67  65  93 E8        29.96F FOG
FINDLAY        MOCLDY    68  64  87 E3        29.96S FOG
TOLEDO EXPRESS CLOUDY    65  32  29 NE5       29.97F
TOLEDO EXEC    CLOUDY    67  66  97 NE3       29.98F FOG
LIMA           FAIR      67  66  97 SE8       29.96F
$$

OHZ009>014-019>023-028>033-038-089-191200-
   NORTHEAST OHIO

CITY           SKY/WX    TMP DP  RH WIND       PRES   REMARKS
CLE-HOPKINS    MOCLDY    69  62  78 S7        30.01S
CLE-LAKEFRONT  FAIR      68  61  78 SE6       29.98S
CUY CO. ARPT   MOCLDY    68  63  83 S8        30.01
LORAIN-ELYRIA  CLOUDY    65  59  81 CALM      30.00S
ASHTABULA      FAIR      64  64 100 SE5       30.03S
AKRON-CANTON   FAIR      65  60  84 SE5       30.02S
WOOSTER        CLOUDY    61  60  97 SE3       30.02S FOG
MANSFIELD      CLOUDY    68  64  87 SE5       30.01S
YOUNGSTOWN     MOCLDY    62  62 100 SE7       30.03R
$$

OHZ042-051>053-060>062-070>072-077>081-191200-
  SOUTHWEST OHIO

CITY           SKY/WX    TMP DP  RH WIND       PRES   REMARKS
CINC-COVINGTON CLOUDY    70  67  90 S5        29.96S
CINC-LUNKEN    FAIR      66  66 100 CALM      29.97S FOG
HAMILTON       FAIR      70  66  87 CALM      29.97S
DAYTON         CLOUDY    67  65  93 SE7       29.98S
WRIGHT-PAT AFB MOCLDY    67  67 100 CALM      29.97S
DAYTON GENERAL FAIR      68  64  87 S6        29.97R
WILMINGTON     FAIR      67  64  90 S6        29.98F
$$

OHZ036-037-039>041-045>050-054>059-063>069-073>076-082>088-191200-
  CENTRAL AND SOUTHEAST OHIO

CITY           SKY/WX    TMP DP  RH WIND       PRES   REMARKS
COLUMBUS       CLOUDY    70  66  87 CALM      29.99R
OSU AIRPORT    CLOUDY    69  67  93 SE5       29.99R
BOLTON FIELD   NOT AVBL
RICKENBACK AFB CLOUDY    66  65  99 CALM      29.98S
NEWARK         MOCLDY    66  64  93 CALM      30.00R FOG
MARION         MOCLDY    67  63  87 SE5       29.99S
LANCASTER      CLOUDY    68  66  93 SE5       30.00S
ZANESVILLE     FAIR      60  58  92 CALM      30.01R
NEW PHILLY     FAIR      58  57  97 CALM      30.02S FOG
$$




USA.gov is the U.S. government's official web portal to all federal, state and local government web resources and services.